Nellis AFB, NV

4:47 AM PDT on October 17, 2017 (GMT -0700)
Nellis Air Force Base

Weather History for KLSV - October, 2012

Change the Weather History Date:

Tuesday, October 9, 2012

  Actual Average Record
Temperature  
Mean Temperature 76 °F -  
Max Temperature 89 °F 84 °F 100 °F (1996)
Min Temperature 64 °F 57 °F 49 °F (2007)
Cooling Degree Days 12    
Growing Degree Days 26 (Base 50)    
Moisture  
Dew Point 32 °F    
Average Humidity 19    
Maximum Humidity 31    
Minimum Humidity 13    
Precipitation  
Precipitation 0.00 in - - ()
Sea Level Pressure  
Sea Level Pressure 29.84 in    
Wind  
Wind Speed 9 mph (SSE)    
Max Wind Speed 21 mph    
Max Gust Speed 23 mph    
Visibility 10 miles    
Events      
Averages and records for this station are not official NWS values.
T = Trace of Precipitation, MM = Missing Value Source: NWS Daily Summary

Daily Weather History Graph

Daily Weather History Graph

Search for Another Location

Airport or City:

Trip Planner

Search our weather history database for the weather conditions in past years. The results will help you decide how hot, cold, wet, or windy it might be!

Date:

Astronomy

Oct. 09, 2012 Rise Set
Actual Time 6:42 AM PDT 6:11 PM PDT
Civil Twilight 6:16 AM PDT 6:37 PM PDT
Nautical Twilight 5:46 AM PDT 7:06 PM PDT
Astronomical Twilight 5:17 AM PDT 7:36 PM PDT
Moon 12:33 AM PDT (10/9) 2:32 PM PDT (10/9)
Length of Visible Light 12h 20m
Length of Day
11h 29m
Waning Crescent, 35% of the Moon is Illuminated
Oct 9
Waning Crescent
Oct 15
New
Oct 21
First Quarter
Oct 29
Full
Nov 6
Last Quarter

Hourly Weather History & Observations

Time (PDT) Temp. Dew Point Humidity Pressure Visibility Wind Dir Wind Speed Gust Speed Precip Events Conditions
12:55 AM 78.1 °F 28.9 °F 17% 29.81 in 10.0 mi SSE 13.8 mph - N/A   Clear
1:55 AM 77.0 °F 29.5 °F 17% 29.82 in 10.0 mi SSE 11.5 mph - N/A   Clear
2:55 AM 73.8 °F 29.5 °F 20% 29.82 in 10.0 mi South 11.5 mph - N/A   Clear
3:55 AM 75.4 °F 30.0 °F 19% 29.82 in 10.0 mi Calm Calm - N/A   Clear
4:55 AM 72.7 °F 30.9 °F 21% 29.84 in 10.0 mi Calm Calm - N/A   Clear
5:55 AM 71.2 °F 31.1 °F 23% 29.86 in 10.0 mi Calm Calm - N/A   Clear
6:55 AM 64.2 °F 30.9 °F 29% 29.89 in 10.0 mi ENE 6.9 mph - N/A   Clear
7:55 AM 68.7 °F 32.9 °F 27% 29.91 in 10.0 mi Calm Calm - N/A   Clear
8:55 AM 73.6 °F 40.8 °F 31% 29.91 in 10.0 mi NE 5.8 mph - N/A   Clear
9:55 AM 77.5 °F 40.8 °F 27% 29.91 in 10.0 mi East 4.6 mph - N/A   Clear
10:55 AM 80.2 °F 36.3 °F 21% 29.89 in 10.0 mi Calm Calm - N/A   Clear
11:55 AM 83.3 °F 33.4 °F 17% 29.87 in 10.0 mi SE 10.4 mph - N/A   Clear
12:55 PM 85.5 °F 31.6 °F 14% 29.84 in 10.0 mi Variable 5.8 mph - N/A   Clear
1:55 PM 87.3 °F 34.9 °F 15% 29.81 in 10.0 mi South 9.2 mph - N/A   Clear
2:55 PM 87.8 °F 40.5 °F 19% 29.79 in 10.0 mi ESE 12.7 mph - N/A   Clear
3:55 PM 88.9 °F 37.8 °F 16% 29.78 in 10.0 mi South 16.1 mph - N/A   Clear
4:55 PM 89.1 °F 31.6 °F 13% 29.77 in 10.0 mi SSE 19.6 mph 23.0 mph N/A   Clear
5:55 PM 86.9 °F 32.9 °F 14% 29.78 in 10.0 mi SSE 19.6 mph - N/A   Scattered Clouds
6:55 PM 85.1 °F 29.7 °F 13% 29.80 in 10.0 mi South 20.7 mph - N/A   Mostly Cloudy
7:55 PM 83.3 °F 28.0 °F 13% 29.82 in 10.0 mi South 17.3 mph - N/A   Clear
8:55 PM 80.8 °F 27.9 °F 14% 29.84 in 10.0 mi South 9.2 mph - N/A   Mostly Cloudy
9:55 PM 78.4 °F 30.6 °F 17% 29.86 in 10.0 mi South 6.9 mph - N/A   Partly Cloudy
10:55 PM 77.9 °F 30.2 °F 17% 29.85 in 10.0 mi South 3.5 mph - N/A   Partly Cloudy
11:55 PM 70.7 °F 29.3 °F 21% 29.86 in 10.0 mi NNE 5.8 mph - N/A   Scattered Clouds